Regional Weather Roundup
Issued by NWS

Home | Current Version | Previous Version | Graphics & Text | Print | Product List | Glossary On
Versions: 1 2 3 4 5 6 7 8 9 10 11 12 13 14 15 16 17 18 19 20 21 22 23 24 25 26 27 28 29 30 31 32 33 34 35 36 37 38 39 40 41 42 43 44 45 46 47 48 49 50
000
ASUS45 KBOU 240907
RWRCO

WEATHER ROUNDUP FOR COLORADO
NATIONAL WEATHER SERVICE DENVER/BOULDER CO
300 AM MDT THU JUL 24 2014

NOTE: "FAIR" INDICATES FEW OR NO CLOUDS BELOW 12000 FEET WITH NO
SIGNIFICANT WEATHER AND/OR OBSTRUCTIONS TO VISIBILITY.

COZ001>005-013-030-031-241000-
...NORTHWEST COLORADO...

CITY           SKY/WX    TMP DP  RH WIND       PRES   REMARKS
CRAIG          PTCLDY    58  50  75 SE3       30.25R
HAYDEN         PTCLDY    66  43  42 E8        30.28S
MEEKER         MOCLDY    63  42  46 CALM      30.29R
MOUNT WERNER   NOT AVBL
STEAMBOAT SPGS PTCLDY    64  44  46 W3        30.31F
WALDEN         MOCLDY    54  41  62 E9        30.42F
$$

COZ006>008-011-241000-
...WEST CENTRAL VALLEYS...

CITY           SKY/WX    TMP DP  RH WIND       PRES   REMARKS
GRAND JUNCTION MOCLDY    83  46  27 SE18      30.11F
MONTROSE       PTCLDY    71  56  58 SE10      30.28S
EAGLE          PTCLDY    63  46  55 E6        30.35F
RIFLE          MOCLDY    68  46  45 CALM      30.22R
DELTA          MOCLDY    78  51  39 NE8       30.23R
NUCLA          PTCLDY    79  45  29 SE10      30.33R
$$

COZ017>023-064>068-241000-
...SOUTHWEST COLORADO...

CITY           SKY/WX    TMP DP  RH WIND       PRES   REMARKS
DURANGO        MOCLDY    65  51  60 N12       30.41F
CORTEZ         PTCLDY    77  49  37 E15G24    30.30F
PAGOSA SPRINGS MOCLDY    63  49  61 NW9G18    30.50F
TELLURIDE      PTCLDY    63  43  48 SE9G17    30.57S THUNDER
WOLF CREEK PAS NOT AVBL
$$

COZ009-010-012-014-032>034-037-058>063-241000-
...CENTRAL COLORADO...

CITY           SKY/WX    TMP DP  RH WIND       PRES   REMARKS
ASPEN          CLOUDY    61  48  62 CALM      30.42F
BUENA VISTA    MOCLDY    56  44  63 W7        30.48F
COPPER MTN     PTCLDY    55  37  50 S31       30.76F
BERTHOUD PASS  FAIR      46  32  57 MISG      30.80F
COTTONWOOD PAS MOCLDY    61  39  44 CALM      30.62S
GUNNISON       CLOUDY    63  46  55 N9        30.47F
KREMMLING      PTCLDY    55  41  58 NE5       30.41S
LEADVILLE      MOCLDY    47  43  86 NE6       30.61F
MONARCH PASS   MOCLDY    50  41  71 SW14      30.87F
SALIDA         MOCLDY   N/A N/A N/A CALM      30.50F
SUNLIGHT       MOCLDY    57  41  54 CALM      30.66S
WILKERSON PASS MOCLDY    52  37  58 SW12G20   30.72F
$$

COZ069>075-241000-
...SAN LUIS VALLEY/SANGRE DE CRISTO MOUNTAINS...

CITY           SKY/WX    TMP DP  RH WIND       PRES   REMARKS
ALAMOSA        MOCLDY    57  49  74 SE10      30.45F
LA VETA PASS   PTCLDY    54  43  66 SW12G23   30.63F
SAGUACHE       PTCLDY    59  45  58 N6        30.49F
$$

COZ035-036-038>040-241000-
...NORTHERN COLORADO FRONT RANGE...

CITY           SKY/WX    TMP DP  RH WIND       PRES   REMARKS
DENVER INTL AP MOCLDY    73  46  38 S13       30.15F
DMNS CITY PARK   N/A     75  45  34 S6G12     30.14F
AURORA         PTCLDY    73  48  41 S13       30.19F
FRONT RANGE AP NOT AVBL
ERIE MUNI ARPT PTCLDY    63  50  62 CALM      30.14F
BOULDER MUN AP PTCLDY    66  46  48 CALM      30.15F
CENTENNIAL     MOCLDY    73  46  38 S7        30.21F
BROOMFIELD     PTCLDY    72  45  37 NW6       30.18F
FORT COLLINS   PTCLDY    63  54  72 W7        30.14F
LONGMONT       PTCLDY    65  51  59 CALM      30.15F
$$

COZ041-046-047-076>085-087-088-241000-
...PIKES PEAK/PALMER DIVIDE AND SOUTHERN FOOTHILLS...

CITY           SKY/WX    TMP DP  RH WIND       PRES   REMARKS
COLO. SPRINGS  MOCLDY    70  58  65 CALM      30.28F
A. F. ACADEMY  CLOUDY    59  49  68 N6        30.30F
ELLICOTT       MOCLDY    65  58  78 NE5       30.26F
FALCON         MOCLDY    64  57  76 SW6       30.34F
FORT CARSON    MOCLDY    70  50  49 S6        30.24F
LIMON          MOCLDY    63  60  90 SE6       30.22F
MONUMENT HILL  CLOUDY    64  46  52 SW7       30.32F
TRINIDAD       PTCLDY    70  50  49 SW16      30.27F
$$

COZ042>045-048>051-090-091-241000-
...NORTHEAST COLORADO...

CITY           SKY/WX    TMP DP  RH WIND       PRES   REMARKS
GREELEY ARPT   PTCLDY    59  48  67 N5        30.12F
AKRON          CLEAR     68  63  84 S17G25    30.13F
BURLINGTON     CLEAR     70  66  87 S14       30.16F
WRAY             N/A     70  65  83 NE6       30.12F
STERLING       CLEAR     72  68  88 S8        30.08F
HOLYOKE        CLEAR     68  63  83 SE9       30.11F
FORT MORGAN    CLEAR     67  62  83 SE6       30.11F
$$

COZ086-089-092>099-241000-
...SOUTHEAST COLORADO...

CITY           SKY/WX    TMP DP  RH WIND       PRES   REMARKS
PUEBLO         PTCLDY    67  55  65 W6        30.17F
LA JUNTA       CLEAR     73  52  47 SW13      30.15F
LAMAR          CLEAR     69  57  65 SE6       30.11F
SPRINGFIELD      N/A     70  55  59 SW8       30.20F
$$



USA.gov is the U.S. government's official web portal to all federal, state and local government web resources and services.